GW6407 Weather Reports


time (UTC)temp
F
wind
direction
speed
knots
gust
knots
rain 1hr
in
rain 24hr
in
rain mn
in
humidity
%
barometer
mb
20260906161508 78 191 1.7 6.1 0.00 0.00 0.00 59 1021.7
20260906160021 77 170 2.6 6.1 0.00 0.00 0.00 57 1021.9
20260906154516 76 305 0.9 5.2 0.00 0.00 0.00 58 1021.8
20260906153027 75 237 0.9 5.2 0.00 0.00 0.00 59 1022.0
20260906151530 75 193 1.7 5.2 0.00 0.00 0.00 60 1022.0
20260906150009 73 211 0.0 4.3 0.00 0.00 0.00 64 1021.8
20260906144517 72 226 1.7 5.2 0.00 0.00 0.00 68 1021.7
20260906143023 70 176 2.6 6.1 0.00 0.00 0.00 72 1021.7
20260906141530 68 252 1.7 6.1 0.00 0.00 0.00 78 1021.7
20260906140038 67 146 1.7 5.2 0.00 0.00 0.00 84 1021.9
20260906134515 65 176 1.7 4.3 0.00 0.00 0.00 92 1022.1
20260906133018 63 162 0.9 1.7 0.00 0.00 0.00 96 1022.3
20260906131527 62 172 0.9 3.5 0.00 0.00 0.00 96 1022.2
20260906130030 60 179 0.9 1.7 0.00 0.00 0.00 95 1022.2
20260906124529 59 158 0.0 1.7 0.00 0.00 0.00 95 1022.1
20260906123029 59 158 0.0 1.7 0.00 0.00 0.00 94 1022.0
20260906121536 59 158 0.0 0.0 0.00 0.00 0.00 94 1021.6
20260906120006 59 158 0.0 1.7 0.00 0.00 0.00 94 1021.4
20260906114510 59 158 0.0 0.0 0.00 0.00 0.00 93 1021.4
20260906113035 60 158 0.0 1.7 0.00 0.00 0.00 93 1021.4
20260906111522 60 158 0.0 0.0 0.00 0.00 0.00 93 1021.1
20260906110004 61 158 0.0 1.7 0.00 0.00 0.00 93 1020.9
20260906104510 61 158 0.0 1.7 0.00 0.00 0.00 93 1020.6
20260906103013 62 158 0.0 0.9 0.00 0.00 0.00 93 1020.7
20260906101517 62 158 0.0 1.7 0.00 0.00 0.00 93 1021.0
20260906100026 63 158 0.0 1.7 0.00 0.00 0.00 93 1020.9
20260906094507 63 158 0.0 1.7 0.00 0.00 0.00 93 1020.7
20260906093011 63 158 0.0 1.7 0.00 0.00 0.00 93 1020.6
20260906091527 63 172 0.0 1.7 0.00 0.00 0.00 93 1020.6
20260906090028 63 181 0.0 0.0 0.00 0.00 0.00 92 1020.7
20260906084505 64 181 0.0 0.0 0.00 0.00 0.00 92 1020.7
20260906083013 64 181 0.0 0.0 0.00 0.00 0.00 92 1020.7
20260906081518 64 181 0.0 0.0 0.00 0.00 0.00 92 1020.7
20260906080020 64 181 0.0 0.0 0.00 0.00 0.00 91 1020.6
20260906074527 65 181 0.0 1.7 0.00 0.00 0.00 90 1020.5
20260906073006 66 146 0.0 1.7 0.00 0.00 0.00 90 1020.6
20260906071508 66 146 0.0 1.7 0.00 0.00 0.00 90 1020.8
20260906070015 66 226 0.0 3.5 0.00 0.00 0.00 91 1021.0
20260906064523 66 212 0.0 1.7 0.00 0.00 0.00 91 1020.9
20260906063028 65 195 0.0 1.7 0.00 0.00 0.00 91 1020.8
20260906061509 66 188 1.7 3.5 0.00 0.00 0.00 90 1020.5
20260906060024 66 164 1.7 4.3 0.00 0.00 0.00 90 1020.5
20260906054523 66 173 1.7 4.3 0.00 0.00 0.00 90 1020.4
20260906053032 66 186 1.7 6.1 0.00 0.00 0.00 90 1020.4
20260906051530 66 187 1.7 4.3 0.00 0.00 0.00 91 1020.4
20260906050029 65 176 0.0 2.6 0.00 0.00 0.00 90 1020.5
20260906044531 65 161 1.7 3.5 0.00 0.00 0.00 91 1020.3
20260906043024 64 150 0.9 4.3 0.00 0.00 0.00 91 1020.1
20260906041531 63 174 1.7 3.5 0.00 0.00 0.00 92 1019.9
20260906040034 63 144 0.9 1.7 0.00 0.00 0.00 90 1019.5
20260906034516 63 163 0.0 1.7 0.00 0.00 0.00 89 1019.5
20260906033036 63 81 0.0 1.7 0.00 0.00 0.00 89 1019.3
20260906031504 63 33 0.0 1.7 0.00 0.00 0.00 89 1019.2
20260906030010 63 33 0.0 1.7 0.00 0.00 0.00 88 1019.1
20260906024514 64 33 0.0 1.7 0.00 0.00 0.00 86 1018.8
20260906023019 64 33 0.0 0.0 0.00 0.00 0.00 86 1018.5
20260906021505 65 33 0.0 0.9 0.00 0.00 0.00 85 1018.7
20260906020005 66 9 0.0 1.7 0.00 0.00 0.00 84 1018.7
20260906014509 67 9 0.0 0.0 0.00 0.00 0.00 83 1018.8
20260906013014 68 9 0.0 1.7 0.00 0.00 0.00 81 1018.7
20260906011533 70 9 0.0 1.7 0.00 0.00 0.00 78 1018.5
20260906010003 71 9 0.0 1.7 0.00 0.00 0.00 77 1018.4
20260906004508 72 3 0.0 1.7 0.00 0.00 0.00 74 1018.4
20260906003012 74 359 0.9 4.3 0.00 0.00 0.00 72 1018.3
20260906001516 75 18 0.9 2.6 0.00 0.00 0.00 71 1018.1
20260906000025 75 24 0.0 6.1 0.00 0.00 0.00 72 1017.9
20260905234506 75 19 0.0 3.5 0.00 0.00 0.00 73 1017.7
20260905233007 76 19 0.0 1.7 0.00 0.00 0.00 71 1017.9
20260905231514 78 359 0.9 1.7 0.00 0.00 0.00 68 1017.9
20260905230028 79 357 1.7 3.5 0.00 0.00 0.00 64 1017.9
20260905224533 80 37 0.0 2.6 0.00 0.00 0.00 61 1017.9
20260905223010 81 46 0.0 1.7 0.00 0.00 0.00 60 1017.8
20260905221517 82 43 0.0 0.9 0.00 0.00 0.00 55 1017.8
20260905220021 83 318 0.0 2.6 0.00 0.00 0.00 54 1017.9
20260905214525 83 349 1.7 2.6 0.00 0.00 0.00 53 1018.1
20260905213005 83 310 0.9 2.6 0.00 0.00 0.00 52 1018.1
20260905211512 83 288 0.0 3.5 0.00 0.00 0.00 53 1018.1
20260905210018 82 169 0.9 2.6 0.00 0.00 0.00 54 1018.4
20260905204522 82 317 0.9 2.6 0.00 0.00 0.00 55 1018.5
20260905203031 83 1 0.9 5.2 0.00 0.00 0.00 55 1018.5
20260905201510 83 356 0.9 2.6 0.00 0.00 0.00 53 1018.4
20260905200017 82 330 2.6 5.2 0.00 0.00 0.00 55 1018.4
20260905194523 81 229 0.9 2.6 0.00 0.00 0.00 61 1018.5
20260905193029 80 254 0.9 4.3 0.00 0.00 0.00 60 1018.6
20260905191528 78 186 0.9 3.5 0.00 0.00 0.00 64 1018.8
20260905190014 77 333 0.0 1.7 0.00 0.00 0.00 67 1018.9
20260905184520 78 326 0.9 2.6 0.00 0.00 0.00 66 1018.9
20260905183024 78 16 1.7 2.6 0.00 0.00 0.00 66 1018.7
20260905181507 78 330 0.9 2.6 0.00 0.00 0.00 66 1019.1
20260905180013 78 359 0.0 3.5 0.00 0.00 0.00 68 1019.2
20260905174518 76 302 0.9 2.6 0.00 0.00 0.00 70 1019.3
20260905173003 76 217 2.6 4.3 0.00 0.00 0.00 71 1019.4
20260905171505 75 356 0.9 3.5 0.00 0.00 0.00 71 1019.5
20260905170011 74 329 1.7 2.6 0.00 0.00 0.00 74 1019.6
20260905164513 75 101 0.9 3.5 0.00 0.00 0.00 72 1019.9
20260905163018 76 134 0.9 4.3 0.00 0.00 0.00 70 1020.0